LACMA ENOCH

Last updated on Oct. 27, 2021, 12:03 a.m. UTC

1 43777U 18099V   21299.21604662  .00160737  00000-0  56480-2 0  9994
2 43777  97.7314  21.3534 0011931 282.5954  77.3951 15.28632452158687
UTC
Height (km)
Latitude
Longitude
Inclination
Orbital Period
UTC large
Height (km)
Speed (km/s)
/
Latitude / Longitude
Inclination (degrees)
Orbital Period (minutes)
Azimuth
Elevation
Range (km)
Doppler Factor
iOS Compass Heading
iOS Angle